QPF
0.00 0.00 0.00 0.00 0.01 0.01 0.02 0.02 0.01 0.00 0.00 0.00 0.00 0.00 0.00 0.00 0.00 0.00 0.00 0.00 0.00 0.00 0.00 0.01 0.00 0.00 0.00 0.00 0.00 0.00 0.00 0.00 0.00 0.00 0.00 0.00 0.00 0.00 0.00 0.00 0.00 0.00 0.00
0.00 0.00 0.00 0.00 0.00 0.00 0.00 0.01 0.01 0.01 0.00 0.00 0.00 0.00 0.00 0.00 0.00 0.00 0.00 0.00 0.00 0.01 0.00 0.00 0.00 0.00 0.00 0.00 0.00 0.00 0.00 0.00 0.00 0.00 0.00 0.00 0.00 0.00 0.00 0.00 0.00 0.00 0.00
0.00 0.00 0.00 0.00 0.00 0.00 0.00 0.01 0.01 0.01 0.01 0.00 0.00 0.00 0.00 0.00 0.00 0.00 0.00 0.00 0.01 0.01 0.00 0.00 0.00 0.00 0.00 0.00 0.00 0.00 0.00 0.00 0.00 0.00 0.00 0.00 0.00 0.00 0.00 0.00 0.00 0.00 0.00
0.00 0.00 0.00 0.00 0.00 0.00 0.00 0.00 0.00 0.00 0.00 0.00 0.00 0.00 0.00 0.00 0.00 0.00 0.00 0.01 0.01 0.00 0.00 0.00 0.00 0.00 0.00 0.00 0.00 0.00 0.00 0.00 0.00 0.00 0.00 0.00 0.00 0.00 0.00 0.00 0.00 0.00 0.00
0.00 0.00 0.00 0.00 0.01 0.01 0.01 0.00 0.00 0.00 0.00 0.00 0.00 0.00 0.00 0.00 0.00 0.00 0.00 0.00 0.00 0.00 0.00 0.00 0.00 0.00 0.00 0.00 0.00 0.00 0.00 0.00 0.00 0.00 0.00 0.00 0.00 0.00 0.00 0.00 0.00 0.00 0.00
0.00 0.00 0.00 0.00 0.00 0.00 0.01 0.01 0.01 0.00 0.00 0.00 0.00 0.00 0.00 0.00 0.00 0.00 0.00 0.00 0.00 0.00 0.00 0.00 0.00 0.00 0.00 0.00 0.00 0.00 0.00 0.00 0.00 0.00 0.00 0.00 0.00 0.00 0.00 0.00 0.00 0.00 0.00
0.00 0.00 0.00 0.00 0.00 0.00 0.00 0.00 0.00 0.00 0.00 0.00 0.00 0.00 0.00 0.00 0.00 0.00 0.00 0.00 0.00 0.00 0.00 0.00 0.00 0.00 0.00 0.00 0.00 0.00 0.00 0.00 0.00 0.00 0.00 0.00 0.00 0.00 0.00 0.00 0.00 0.00 0.00
0.00 0.00 0.00 0.00 0.00 0.00 0.00 0.00 0.00 0.00 0.00 0.00 0.00 0.00 0.00 0.00 0.00 0.00 0.00 0.00 0.00 0.00 0.00 0.00 0.00 0.00 0.00 0.00 0.00 0.00 0.00 0.00 0.00 0.00 0.00 0.00 0.00 0.00 0.00 0.00 0.00 0.00 0.00
0.00 0.00 0.00 0.00 0.00 0.00 0.00 0.00 0.00 0.00 0.00 0.00 0.00 0.00 0.00 0.00 0.00 0.00 0.00 0.00 0.00 0.00 0.00 0.00 0.00 0.00 0.00 0.00 0.00 0.00 0.00 0.00 0.00 0.00 0.00 0.00 0.00 0.00 0.00 0.00 0.00 0.00 0.00
0.00 0.00 0.01 0.01 0.00 0.00 0.00 0.00 0.00 0.00 0.00 0.00 0.00 0.00 0.00 0.00 0.00 0.00 0.00 0.00 0.00 0.00 0.00 0.00 0.00 0.00 0.00 0.00 0.00 0.00 0.00 0.00 0.00 0.00 0.00 0.00 0.00 0.00 0.00 0.00 0.00 0.00 0.00
0.00 0.00 0.01 0.00 0.00 0.00 0.00 0.00 0.00 0.00 0.00 0.00 0.00 0.00 0.00 0.00 0.00 0.00 0.00 0.00 0.00 0.00 0.00 0.00 0.00 0.00 0.00 0.00 0.00 0.00 0.00 0.00 0.00 0.00 0.00 0.00 0.00 0.00 0.00 0.00 0.00 0.00 0.00
0.00 0.00 0.00 0.00 0.00 0.00 0.00 0.00 0.00 0.00 0.00 0.00 0.00 0.00 0.00 0.00 0.00 0.00 0.00 0.00 0.00 0.00 0.00 0.00 0.00 0.00 0.00 0.00 0.00 0.00 0.00 0.00 0.00 0.00 0.00 0.00 0.00 0.00 0.00 0.00 0.00 0.00 0.00
0.00 0.00 0.00 0.00 0.00 0.00 0.00 0.00 0.00 0.00 0.00 0.00 0.00 0.00 0.00 0.00 0.00 0.00 0.00 0.00 0.00 0.00 0.00 0.00 0.00 0.00 0.00 0.00 0.00 0.00 0.00 0.00 0.00 0.00 0.00 0.00 0.00 0.00 0.00 0.00 0.00 0.00 0.00
0.00 0.00 0.00 0.00 0.00 0.00 0.00 0.00 0.00 0.00 0.00 0.00 0.00 0.00 0.00 0.00 0.00 0.00 0.00 0.00 0.00 0.00 0.00 0.00 0.00 0.00 0.00 0.00 0.00 0.00 0.00 0.00 0.00 0.00 0.00 0.00 0.00 0.00 0.00 0.00 0.00 0.00 0.00
0.00 0.00 0.00 0.00 0.00 0.00 0.00 0.00 0.00 0.00 0.00 0.00 0.00 0.00 0.00 0.00 0.00 0.00 0.00 0.00 0.00 0.00 0.00 0.00 0.00 0.00 0.00 0.00 0.00 0.00 0.00 0.00 0.00 0.00 0.00 0.00 0.00 0.00 0.00 0.00 0.00 0.00 0.00
0.00 0.00 0.00 0.00 0.00 0.00 0.00 0.00 0.00 0.00 0.00 0.00 0.00 0.00 0.00 0.00 0.00 0.00 0.00 0.00 0.00 0.00 0.00 0.00 0.00 0.00 0.00 0.00 0.00 0.00 0.00 0.00 0.00 0.00 0.00 0.00 0.00 0.00 0.00 0.00 0.00 0.00 0.00
0.00 0.00 0.00 0.00 0.00 0.00 0.00 0.00 0.00 0.00 0.00 0.00 0.00 0.00 0.00 0.00 0.00 0.00 0.00 0.00 0.00 0.00 0.00 0.00 0.00 0.00 0.00 0.00 0.00 0.00 0.00 0.00 0.00 0.00 0.00 0.00 0.00 0.00 0.00 0.00 0.00 0.00 0.00
0.00 0.00 0.00 0.00 0.00 0.00 0.00 0.00 0.00 0.00 0.00 0.00 0.00 0.00 0.00 0.00 0.00 0.00 0.00 0.00 0.00 0.00 0.00 0.00 0.00 0.00 0.00 0.00 0.00 0.00 0.00 0.00 0.00 0.00 0.00 0.00 0.00 0.00 0.00 0.00 0.00 0.00 0.00
0.00 0.00 0.00 0.00 0.00 0.00 0.00 0.00 0.00 0.00 0.00 0.00 0.00 0.00 0.00 0.00 0.00 0.00 0.00 0.00 0.00 0.00 0.00 0.00 0.00 0.00 0.00 0.00 0.00 0.00 0.00 0.00 0.00 0.00 0.00 0.00 0.00 0.00 0.00 0.00 0.00 0.00 0.00
0.00 0.00 0.00 0.00 0.00 0.00 0.00 0.00 0.00 0.00 0.00 0.00 0.00 0.00 0.00 0.00 0.00 0.00 0.00 0.00 0.00 0.00 0.00 0.00 0.00 0.00 0.00 0.00 0.00 0.00 0.00 0.00 0.00 0.00 0.00 0.00 0.00 0.00 0.00 0.00 0.00 0.00 0.00
0.00 0.00 0.00 0.00 0.00 0.00 0.00 0.00 0.00 0.00 0.00 0.00 0.00 0.00 0.00 0.00 0.00 0.00 0.00 0.00 0.00 0.00 0.00 0.00 0.00 0.00 0.00 0.00 0.00 0.00 0.00 0.00 0.00 0.00 0.00 0.00 0.00 0.00 0.00 0.00 0.00 0.00 0.00
0.00 0.00 0.00 0.00 0.00 0.00 0.00 0.00 0.00 0.00 0.00 0.00 0.00 0.00 0.00 0.00 0.00 0.00 0.00 0.00 0.00 0.00 0.00 0.00 0.00 0.00 0.00 0.00 0.00 0.00 0.00 0.00 0.00 0.00 0.00 0.00 0.00 0.00 0.00 0.00 0.00 0.00 0.00
0.00 0.00 0.00 0.00 0.00 0.00 0.00 0.00 0.00 0.00 0.00 0.00 0.00 0.00 0.00 0.00 0.00 0.00 0.00 0.00 0.00 0.00 0.00 0.00 0.00 0.00 0.00 0.00 0.00 0.00 0.00 0.00 0.00 0.00 0.00 0.00 0.00 0.00 0.00 0.00 0.00 0.00 0.00
0.00 0.00 0.00 0.00 0.00 0.00 0.00 0.00 0.00 0.00 0.00 0.00 0.00 0.00 0.00 0.00 0.00 0.00 0.00 0.00 0.00 0.00 0.00 0.00 0.00 0.00 0.00 0.00 0.00 0.00 0.00 0.00 0.00 0.00 0.00 0.00 0.00 0.00 0.00 0.00 0.00 0.00 0.00
0.00 0.00 0.00 0.00 0.00 0.00 0.00 0.00 0.00 0.00 0.00 0.00 0.00 0.00 0.00 0.00 0.00 0.00 0.00 0.00 0.00 0.00 0.00 0.00 0.00 0.00 0.00 0.00 0.00 0.00 0.00 0.00 0.00 0.00 0.00 0.00 0.00 0.00 0.00 0.00 0.00 0.00 0.00
0.00 0.00 0.00 0.00 0.00 0.00 0.00 0.00 0.00 0.00 0.00 0.00 0.00 0.00 0.00 0.00 0.00 0.00 0.00 0.00 0.00 0.00 0.00 0.00 0.00 0.00 0.00 0.00 0.00 0.00 0.00 0.00 0.00 0.00 0.00 0.00 0.00 0.00 0.00 0.00 0.00 0.00 0.00
MSLP
1016.01 1015.67 1015.38 1014.98 1014.85 1014.75 1014.60 1014.53 1015.37 1015.04 1014.66 1014.26 1014.41 1014.31 1014.65 1014.67 1014.61 1015.06 1013.62 1014.08 1013.84 1013.63 1013.19 1012.84 1012.70 1012.59 1012.21 1011.76 1011.28 1010.80 1010.53 1010.35 1010.13 1010.55 1010.84 1010.68 1010.63 1010.52 1010.38 1010.02 1009.81 1009.48 1009.08
1016.23 1016.07 1015.87 1015.37 1015.04 1015.00 1014.83 1014.71 1014.70 1014.59 1014.27 1014.55 1014.31 1014.11 1014.18 1014.38 1014.34 1014.28 1013.78 1013.97 1013.82 1013.60 1013.28 1013.01 1012.94 1012.51 1012.20 1011.77 1011.29 1011.01 1011.02 1010.94 1010.89 1010.85 1011.24 1011.30 1011.25 1011.21 1011.09 1010.78 1010.48 1010.07 1009.68
1016.65 1016.48 1016.14 1015.79 1015.42 1015.27 1014.91 1014.57 1014.38 1014.26 1013.92 1014.22 1014.46 1013.85 1014.02 1014.07 1014.06 1013.86 1013.97 1013.95 1013.48 1013.56 1013.44 1013.25 1013.12 1012.54 1012.40 1011.95 1011.54 1011.47 1011.44 1011.38 1011.28 1011.19 1011.59 1011.87 1011.83 1011.68 1011.52 1011.34 1011.09 1010.82 1010.44
1016.66 1016.39 1016.08 1015.96 1015.58 1015.28 1014.87 1014.48 1014.12 1013.97 1013.91 1013.58 1013.89 1013.91 1013.95 1014.11 1013.99 1013.78 1013.59 1013.62 1013.71 1013.70 1013.61 1013.34 1012.98 1012.96 1012.73 1012.18 1012.05 1012.01 1011.94 1011.91 1011.85 1011.82 1012.00 1012.14 1012.08 1012.07 1011.98 1011.86 1011.62 1011.25 1011.01
1016.64 1016.19 1015.77 1015.46 1015.24 1014.75 1014.38 1014.01 1013.56 1013.71 1013.58 1013.45 1013.38 1013.58 1013.89 1013.84 1013.70 1013.56 1013.28 1013.20 1013.88 1013.66 1013.56 1013.27 1013.25 1013.30 1013.12 1012.64 1012.63 1012.63 1012.50 1012.52 1012.47 1012.46 1012.63 1012.65 1012.53 1012.32 1012.25 1012.13 1011.90 1011.59 1011.23
1016.21 1015.92 1015.44 1015.16 1014.99 1014.50 1013.97 1013.42 1013.14 1013.36 1013.38 1013.56 1013.30 1013.57 1013.57 1013.32 1013.24 1013.30 1013.15 1013.35 1013.45 1013.28 1013.40 1013.42 1013.65 1013.72 1013.58 1013.25 1013.05 1012.91 1012.89 1013.10 1013.06 1012.88 1012.94 1013.04 1012.83 1012.69 1012.44 1012.21 1012.00 1011.74 1011.45
1016.00 1015.60 1015.15 1014.84 1014.52 1014.15 1013.45 1013.75 1013.28 1013.51 1013.81 1013.68 1013.53 1013.36 1013.19 1013.13 1012.95 1012.99 1012.96 1013.09 1012.89 1013.15 1013.31 1013.50 1013.69 1013.96 1013.84 1013.63 1013.50 1013.43 1013.42 1013.40 1013.18 1013.12 1013.27 1013.26 1013.01 1012.64 1012.38 1012.06 1011.90 1011.76 1011.81
1015.93 1015.46 1015.00 1014.62 1014.21 1014.02 1013.90 1013.65 1013.53 1013.52 1013.70 1013.63 1013.35 1013.11 1013.12 1012.93 1013.05 1012.93 1012.91 1012.86 1013.15 1013.32 1013.30 1013.40 1013.80 1013.89 1013.92 1013.77 1013.76 1013.90 1013.96 1013.65 1013.33 1013.32 1013.23 1013.15 1012.87 1012.46 1012.15 1011.72 1011.65 1011.73 1011.67
1015.62 1015.25 1014.95 1014.56 1014.21 1014.00 1013.90 1013.86 1013.81 1013.72 1013.81 1013.58 1013.30 1013.13 1013.16 1013.42 1013.23 1013.03 1013.19 1013.36 1013.67 1013.92 1014.06 1014.07 1013.84 1013.94 1014.21 1013.90 1014.05 1014.38 1014.20 1013.86 1013.56 1013.36 1013.15 1012.92 1012.64 1012.20 1011.84 1011.66 1011.85 1011.94 1011.95
1015.39 1015.12 1014.86 1014.51 1014.26 1014.19 1014.12 1014.08 1014.06 1013.92 1013.97 1014.00 1013.99 1013.84 1013.93 1013.94 1013.72 1013.55 1013.64 1013.84 1014.29 1014.64 1014.71 1014.61 1014.45 1014.44 1014.14 1013.95 1014.26 1014.55 1014.42 1014.20 1013.93 1013.64 1013.44 1013.14 1012.74 1012.41 1012.24 1012.24 1012.28 1012.36 1012.25
1015.13 1015.04 1014.84 1014.64 1014.52 1014.35 1014.33 1014.31 1014.31 1014.31 1014.45 1014.62 1014.66 1014.71 1014.77 1014.70 1014.66 1014.52 1014.59 1014.67 1014.95 1015.27 1015.14 1015.29 1015.14 1014.83 1014.68 1014.15 1014.22 1014.21 1014.06 1013.91 1013.75 1013.77 1013.67 1013.44 1013.24 1012.97 1012.63 1012.53 1012.46 1012.45 1012.55
1015.27 1015.19 1015.11 1014.98 1014.71 1014.43 1014.36 1014.55 1014.69 1014.90 1015.10 1015.31 1015.44 1015.66 1015.78 1015.79 1015.60 1015.49 1015.44 1015.56 1015.54 1015.61 1015.59 1015.50 1015.43 1015.03 1014.75 1014.55 1014.28 1013.86 1013.43 1013.24 1013.40 1013.66 1013.94 1013.77 1013.66 1013.44 1013.05 1012.74 1012.63 1012.53 1012.62
1015.76 1015.64 1015.50 1015.24 1015.07 1014.94 1015.04 1015.30 1015.55 1015.81 1016.02 1016.28 1016.49 1016.64 1016.77 1016.59 1016.54 1016.34 1016.28 1016.23 1016.06 1015.90 1015.65 1015.49 1015.30 1015.07 1014.78 1014.51 1014.09 1013.62 1013.34 1013.24 1013.09 1013.59 1014.05 1014.07 1014.00 1013.64 1013.28 1012.97 1012.83 1012.77 1012.84
1016.50 1016.45 1016.36 1016.20 1016.12 1016.04 1016.13 1016.26 1016.45 1016.72 1016.98 1017.29 1017.53 1017.57 1017.61 1017.61 1017.44 1017.20 1016.96 1016.59 1016.31 1016.07 1015.85 1015.70 1015.53 1015.45 1015.32 1014.97 1014.60 1014.33 1014.11 1013.91 1013.80 1013.84 1014.12 1014.33 1014.16 1013.95 1013.64 1013.33 1013.28 1013.12 1013.17
1017.50 1017.47 1017.44 1017.37 1017.29 1017.27 1017.33 1017.41 1017.63 1017.92 1017.94 1018.18 1018.35 1018.25 1018.20 1018.21 1017.97 1017.65 1017.50 1017.09 1016.69 1016.30 1016.10 1015.97 1015.88 1015.93 1015.97 1015.84 1015.55 1015.25 1014.93 1014.66 1014.50 1014.41 1014.46 1014.67 1014.66 1014.47 1014.13 1013.84 1013.70 1013.63 1013.58
1018.43 1018.48 1018.47 1018.39 1018.38 1018.37 1018.45 1018.60 1018.68 1018.68 1018.70 1018.70 1018.66 1018.61 1018.49 1018.33 1017.92 1017.63 1017.21 1016.65 1016.36 1016.19 1016.30 1016.56 1016.69 1016.65 1016.68 1016.60 1016.44 1016.23 1015.96 1015.64 1015.45 1015.19 1015.18 1015.15 1015.16 1015.01 1014.72 1014.50 1014.26 1014.12 1013.99
1019.28 1019.36 1019.38 1019.34 1019.33 1019.21 1019.25 1019.33 1019.48 1019.55 1019.31 1019.14 1018.91 1018.65 1018.43 1018.00 1017.61 1017.40 1017.23 1016.95 1016.75 1016.72 1017.10 1017.25 1017.38 1017.41 1017.45 1017.40 1017.22 1017.04 1016.88 1016.54 1016.23 1016.13 1016.05 1015.92 1015.62 1015.38 1015.16 1015.00 1014.84 1014.63 1014.45
1019.91 1019.78 1019.79 1019.87 1019.86 1019.75 1019.70 1019.74 1019.75 1019.73 1019.73 1019.41 1018.98 1018.77 1018.50 1018.28 1018.08 1017.91 1017.75 1017.62 1017.93 1017.76 1017.94 1018.04 1018.12 1018.17 1018.24 1018.14 1017.95 1017.77 1017.55 1017.26 1017.07 1016.90 1016.70 1016.40 1016.05 1015.90 1015.80 1015.61 1015.48 1015.25 1015.02
1020.47 1020.38 1020.30 1020.28 1020.21 1020.10 1020.14 1020.24 1020.21 1020.17 1020.09 1019.91 1019.56 1019.21 1018.98 1018.82 1018.69 1018.57 1018.51 1018.75 1018.94 1019.07 1019.15 1019.18 1019.09 1019.09 1018.97 1018.73 1018.55 1018.29 1018.14 1018.02 1017.85 1017.64 1017.30 1016.89 1016.60 1016.40 1016.29 1016.19 1015.96 1015.73 1015.52
1020.45 1020.25 1020.38 1020.60 1020.77 1020.84 1020.87 1020.88 1020.88 1020.72 1020.59 1020.54 1020.44 1020.29 1019.91 1019.84 1019.99 1020.10 1019.87 1019.80 1019.97 1020.12 1020.19 1020.24 1020.20 1020.08 1019.97 1019.88 1019.74 1019.52 1019.20 1018.87 1018.62 1018.19 1017.77 1017.42 1017.19 1017.00 1016.86 1016.65 1016.41 1016.18 1015.91
1020.86 1020.64 1020.55 1020.70 1020.93 1021.00 1021.01 1020.97 1020.96 1020.96 1020.98 1021.03 1021.09 1020.90 1020.69 1020.97 1021.15 1021.21 1021.18 1021.16 1021.13 1021.15 1021.20 1021.16 1021.16 1021.11 1021.03 1020.88 1020.72 1020.52 1020.21 1019.84 1019.28 1018.71 1018.16 1017.81 1017.63 1017.60 1017.49 1017.23 1016.96 1016.67 1016.40
1021.29 1021.10 1020.88 1021.02 1021.03 1021.22 1021.33 1021.34 1021.44 1021.48 1021.59 1021.69 1021.84 1021.66 1021.56 1021.67 1021.84 1022.02 1022.14 1022.26 1022.29 1022.17 1022.12 1022.10 1022.05 1022.01 1021.93 1021.80 1021.47 1021.07 1020.74 1020.47 1019.93 1019.36 1018.79 1018.35 1018.12 1018.12 1017.95 1017.74 1017.48 1017.19 1016.90
1021.51 1021.06 1021.11 1021.22 1021.31 1021.42 1021.61 1021.67 1021.96 1022.07 1022.18 1022.38 1022.39 1022.51 1022.60 1022.73 1022.77 1022.84 1022.95 1023.06 1023.15 1023.13 1023.10 1022.98 1022.91 1022.80 1022.56 1022.21 1021.83 1021.62 1021.39 1020.99 1020.53 1019.89 1019.24 1018.94 1018.81 1018.59 1018.47 1018.28 1017.99 1017.68 1017.39
1021.25 1021.31 1021.58 1021.66 1021.66 1021.94 1022.07 1022.27 1022.45 1022.42 1022.65 1022.88 1022.99 1023.12 1023.25 1023.31 1023.43 1023.55 1023.68 1023.73 1023.70 1023.82 1023.81 1023.77 1023.70 1023.58 1023.22 1022.73 1022.22 1021.80 1021.51 1021.07 1020.36 1019.94 1019.46 1019.39 1019.46 1019.30 1019.03 1018.76 1018.49 1018.15 1017.84
1021.26 1021.50 1021.76 1022.03 1022.24 1022.47 1022.71 1022.93 1023.12 1023.13 1023.23 1023.37 1023.55 1023.70 1023.81 1023.87 1023.97 1024.11 1024.33 1024.31 1024.45 1024.53 1024.56 1024.50 1024.36 1024.05 1023.72 1023.35 1022.94 1022.46 1021.82 1021.14 1020.66 1020.20 1019.73 1019.68 1019.89 1019.84 1019.54 1019.31 1018.99 1018.65 1018.29
1021.60 1021.78 1022.07 1022.30 1022.64 1022.86 1023.25 1023.50 1023.65 1023.66 1023.87 1023.95 1024.05 1024.10 1024.20 1024.32 1024.45 1024.60 1024.71 1024.96 1025.18 1025.31 1025.33 1025.26 1025.07 1024.76 1024.34 1024.00 1023.58 1022.92 1022.36 1021.82 1021.22 1020.64 1020.14 1020.02 1020.20 1020.22 1020.08 1019.78 1019.54 1019.22 1018.89
Thickness
5573 5573 5572 5572 5567 5563 5562 5561 5555 5559 5556 5560 5557 5558 5556 5557 5558 5552 5565 5565 5568 5570 5574 5577 5576 5574 5576 5578 5579 5581 5582 5581 5584 5573 5564 5563 5560 5558 5556 5557 5556 5557 5559
5553 5552 5551 5552 5553 5548 5543 5541 5540 5541 5543 5538 5539 5541 5541 5540 5542 5544 5552 5552 5556 5560 5562 5563 5562 5564 5564 5566 5569 5568 5564 5561 5561 5561 5550 5547 5545 5542 5540 5540 5541 5541 5543
5533 5531 5530 5529 5527 5525 5527 5525 5524 5523 5526 5522 5520 5525 5526 5525 5526 5529 5534 5540 5547 5548 5548 5549 5549 5552 5551 5552 5555 5552 5549 5547 5545 5545 5538 5531 5529 5527 5526 5525 5525 5525 5526
5516 5514 5511 5509 5508 5504 5502 5503 5507 5506 5506 5509 5506 5507 5508 5507 5511 5514 5522 5529 5532 5534 5535 5537 5539 5538 5536 5539 5538 5535 5534 5532 5531 5529 5524 5520 5517 5514 5511 5509 5509 5511 5512
5497 5498 5495 5494 5494 5493 5488 5485 5488 5487 5490 5492 5493 5492 5491 5495 5499 5503 5511 5519 5516 5523 5524 5527 5527 5525 5523 5525 5522 5521 5521 5519 5518 5516 5511 5506 5503 5501 5498 5496 5496 5498 5500
5484 5483 5484 5483 5482 5483 5480 5479 5478 5474 5474 5473 5478 5479 5483 5489 5492 5494 5500 5507 5510 5515 5515 5517 5515 5511 5510 5511 5512 5512 5510 5506 5505 5504 5500 5494 5490 5486 5485 5485 5485 5487 5491
5472 5474 5476 5476 5477 5476 5477 5468 5467 5463 5460 5462 5467 5471 5476 5479 5485 5489 5494 5500 5505 5508 5509 5508 5506 5502 5501 5503 5503 5503 5502 5500 5500 5497 5491 5486 5482 5479 5475 5476 5477 5477 5477
5459 5464 5468 5470 5473 5471 5469 5467 5462 5459 5456 5457 5462 5467 5470 5476 5479 5485 5490 5496 5497 5499 5502 5502 5498 5496 5495 5497 5496 5495 5491 5492 5493 5491 5487 5485 5483 5481 5478 5478 5477 5473 5474
5453 5458 5461 5465 5467 5467 5466 5464 5461 5459 5456 5457 5461 5465 5469 5471 5477 5484 5487 5487 5488 5489 5489 5491 5493 5492 5490 5493 5491 5488 5486 5486 5486 5486 5486 5485 5484 5484 5483 5482 5479 5477 5476
5452 5455 5457 5461 5464 5464 5463 5460 5457 5456 5453 5453 5455 5460 5464 5468 5473 5477 5479 5481 5481 5481 5482 5484 5485 5485 5487 5488 5486 5482 5480 5479 5479 5480 5481 5481 5481 5481 5480 5478 5474 5471 5473
5454 5454 5455 5458 5460 5462 5460 5455 5450 5449 5446 5447 5451 5455 5459 5463 5466 5469 5471 5474 5475 5475 5477 5477 5478 5480 5481 5484 5482 5480 5479 5477 5479 5477 5475 5475 5475 5475 5475 5473 5472 5470 5467
5457 5456 5457 5458 5461 5462 5461 5457 5453 5451 5449 5448 5450 5451 5454 5456 5460 5464 5467 5469 5472 5473 5473 5473 5473 5475 5476 5476 5478 5479 5480 5479 5477 5476 5472 5471 5470 5469 5469 5469 5467 5465 5462
5458 5458 5459 5461 5462 5462 5460 5457 5454 5451 5449 5448 5449 5450 5451 5455 5458 5461 5464 5467 5470 5471 5472 5472 5472 5472 5473 5474 5476 5476 5478 5479 5480 5474 5467 5465 5463 5463 5464 5463 5461 5459 5456
5458 5458 5459 5460 5460 5461 5459 5457 5454 5452 5450 5448 5448 5449 5451 5453 5456 5458 5462 5466 5469 5469 5468 5467 5467 5467 5467 5470 5470 5471 5472 5473 5473 5469 5464 5458 5457 5454 5454 5455 5453 5452 5449
5459 5459 5459 5459 5459 5459 5458 5457 5454 5451 5451 5449 5449 5451 5452 5453 5456 5459 5459 5463 5465 5466 5465 5464 5465 5465 5463 5463 5463 5464 5463 5463 5463 5461 5458 5452 5448 5446 5445 5444 5442 5440 5438
5464 5463 5462 5462 5460 5459 5457 5455 5454 5454 5453 5453 5454 5455 5455 5456 5459 5460 5463 5468 5470 5470 5467 5463 5460 5459 5458 5456 5455 5454 5452 5452 5450 5449 5445 5442 5437 5434 5432 5432 5430 5429 5428
5468 5466 5464 5463 5461 5461 5460 5457 5453 5453 5455 5456 5457 5460 5462 5464 5467 5468 5468 5469 5470 5468 5462 5459 5456 5453 5450 5448 5447 5445 5443 5441 5440 5436 5432 5430 5430 5425 5425 5422 5421 5420 5419
5471 5471 5469 5467 5463 5463 5463 5461 5460 5459 5459 5461 5465 5467 5468 5469 5469 5468 5468 5468 5464 5462 5458 5454 5450 5448 5445 5442 5440 5437 5434 5432 5429 5425 5422 5420 5419 5417 5414 5412 5410 5409 5410
5474 5474 5472 5471 5469 5470 5468 5467 5465 5463 5463 5464 5466 5469 5469 5469 5469 5468 5466 5461 5457 5454 5450 5447 5444 5440 5437 5436 5433 5432 5429 5424 5420 5416 5413 5412 5410 5408 5406 5403 5402 5401 5402
5482 5483 5479 5475 5473 5471 5470 5468 5466 5466 5465 5464 5463 5464 5465 5464 5460 5457 5456 5454 5450 5445 5441 5437 5434 5433 5430 5427 5423 5420 5419 5416 5412 5409 5408 5406 5403 5401 5398 5396 5396 5395 5396
5487 5486 5485 5482 5480 5478 5475 5473 5471 5469 5467 5465 5463 5462 5461 5459 5455 5452 5448 5444 5441 5437 5433 5431 5428 5425 5422 5418 5415 5412 5409 5407 5406 5405 5404 5402 5398 5394 5391 5389 5389 5390 5391
5487 5489 5488 5486 5483 5480 5476 5474 5473 5471 5468 5465 5462 5460 5458 5455 5451 5446 5441 5436 5432 5429 5427 5424 5422 5418 5414 5411 5409 5408 5404 5401 5400 5399 5398 5397 5393 5389 5386 5384 5384 5385 5387
5492 5494 5492 5489 5486 5483 5480 5477 5474 5470 5468 5464 5461 5458 5453 5448 5444 5440 5436 5431 5427 5424 5421 5418 5415 5412 5410 5409 5407 5404 5400 5398 5397 5396 5394 5392 5389 5386 5382 5381 5381 5382 5385
5501 5497 5492 5489 5487 5483 5481 5477 5474 5471 5467 5463 5459 5454 5449 5445 5440 5436 5431 5427 5424 5420 5416 5413 5410 5407 5406 5405 5404 5403 5401 5400 5398 5396 5393 5389 5385 5382 5380 5379 5379 5381 5383
5506 5500 5495 5490 5486 5482 5478 5474 5470 5467 5464 5460 5456 5451 5446 5442 5438 5433 5428 5424 5419 5415 5411 5408 5406 5404 5402 5401 5400 5400 5400 5399 5397 5395 5393 5389 5383 5380 5379 5378 5378 5379 5382
5506 5500 5495 5490 5485 5481 5476 5472 5468 5465 5460 5456 5452 5449 5445 5440 5436 5431 5426 5420 5414 5410 5407 5404 5401 5399 5398 5397 5396 5397 5396 5395 5395 5394 5392 5389 5384 5380 5378 5378 5378 5379 5382